Flag for Australia Weather past 2 weeks in Hobart, Tasmania, Australia

Now
54 °F

More clouds than sun.


Feels Like: 51 °F
Forecast: 49 / 66 °F
Wind: 8 mph from Southeast

Location: Hobart Airport

Current Time: Oct 26, 2014 at 12:29:33 PM

Latest Report: Oct 26, 2014 at 11:30 AM


Visibility: N/A

Pressure: 29.95 "Hg

Humidity: 88%

Dew point: 50 °F

Location of HobartLocation

Historic Weather in Hobart — Graph

°F

Hobart temperature yesterday

Maximum temperature yesterday: 63 °F (at 11:30 AM)
Minimum temperature yesterday: 52 °F (at 2:30 AM)
Average temperature yesterday: 57 °F

Past Weeks' High & Low Weather Summary

 TemperatureHumidityPressure
High75 °F (Oct 22, 1:00 PM)94% (Oct 14, 11:30 PM)30.57 "Hg (Oct 14, 11:30 PM)
Low37 °F (Oct 14, 6:00 AM)25% (Oct 12, 6:00 PM)29.45 "Hg (Oct 12, 6:00 PM)
Average54 °F61%30.09 "Hg
* Reported Oct 11 11:00 AM — Oct 26 11:00 AM, Hobart, Weather by CustomWeather, © 2014

Note: Actual official high and low records may vary slightly from our data, if they occured in-between our weather recording intervals... More about our weather records

Advertising

Hobart weather history for previous 24 hours

 ConditionsComfort  
Time TempWeatherWind HumidityBarometerVisibility
11:00 AM
Oct 26
54 °FOvercast.7 mph88%29.95 "HgN/A
10:30 AM54 °FMostly cloudy.6 mph88%29.98 "HgN/A
10:00 AM52 °FMore clouds than sun.7 mph94%29.98 "HgN/A
9:00 AM52 °FLight rain. More clouds than sun.6 mph94%29.98 "Hg4 mi
8:00 AM52 °FLight rain. More clouds than sun.6 mph94%29.98 "Hg4 mi
7:30 AM52 °FLight rain. More clouds than sun.6 mph88%29.98 "Hg4 mi
7:00 AM50 °FLight rain. Mostly cloudy.6 mph94%29.98 "Hg5 mi
6:30 AM50 °FLight rain. Mostly cloudy.6 mph94%29.98 "Hg5 mi
6:00 AM50 °FRain. Low clouds.8 mph94%29.98 "Hg4 mi
5:30 AM50 °FLight rain. Passing clouds.9 mph94%29.98 "Hg4 mi
5:00 AM50 °FLight rain. Partly cloudy.9 mph94%29.98 "Hg4 mi
4:30 AM50 °FLight rain. Mostly cloudy.6 mph94%29.98 "Hg4 mi
4:00 AM50 °FLight rain. Partly cloudy.5 mph94%29.98 "Hg5 mi
3:30 AM50 °FLight rain. Passing clouds.5 mph94%29.98 "Hg4 mi
3:00 AM50 °FLight rain. Passing clouds.6 mph88%30.01 "HgN/A
2:30 AM50 °FLight rain. Passing clouds.6 mph88%30.01 "Hg4 mi
2:00 AM50 °FPassing clouds.5 mph94%30.01 "HgN/A
1:30 AM50 °FPassing clouds.5 mph94%30.04 "HgN/A
1:00 AM50 °FPassing clouds.3 mph94%30.04 "HgN/A
12:30 AM50 °FLight rain. Passing clouds.3 mph94%30.07 "Hg5 mi
12:00 AM50 °FRain. Overcast.No wind88%30.07 "Hg4 mi
11:00 PM
Oct 25
52 °FPassing clouds.5 mph77%30.04 "HgN/A
10:30 PM52 °FPassing clouds.6 mph72%30.04 "HgN/A
10:00 PM52 °FPassing clouds.6 mph72%30.07 "HgN/A
9:30 PM52 °FPartly cloudy.6 mph72%30.07 "HgN/A
9:00 PM54 °FPassing clouds.7 mph67%30.07 "HgN/A
8:30 PM54 °FPassing clouds.8 mph67%30.07 "HgN/A
8:00 PM54 °FPassing clouds.14 mph63%30.04 "HgN/A
7:30 PM54 °FPartly sunny.16 mph63%30.04 "HgN/A
7:00 PM54 °FPartly sunny.17 mph67%30.04 "HgN/A
6:30 PM54 °FPartly sunny.17 mph67%30.04 "HgN/A
6:00 PM55 °FBroken clouds.17 mph63%30.04 "HgN/A
5:30 PM55 °FPartly sunny.18 mph63%30.01 "HgN/A
5:00 PM57 °FScattered clouds.20 mph63%30.01 "HgN/A
4:30 PM57 °FScattered clouds.20 mph63%30.01 "HgN/A
4:00 PM59 °FScattered clouds.20 mph59%30.01 "HgN/A
3:30 PM57 °FPartly sunny.22 mph67%30.01 "HgN/A
3:00 PM59 °FPartly sunny.21 mph68%30.01 "HgN/A
2:30 PM59 °FPartly sunny.22 mph68%30.01 "HgN/A
2:00 PM59 °FBroken clouds.23 mph68%30.01 "HgN/A
1:30 PM59 °FBroken clouds.24 mph72%30.01 "HgN/A
1:00 PM61 °FPartly sunny.20 mph68%30.01 "HgN/A
12:30 PM61 °FPartly sunny.15 mph63%29.98 "HgN/A
12:00 PM63 °FScattered clouds.16 mph64%30.01 "HgN/A
Weather by CustomWeather, © 2014

See weather overviewHow to use our weather pages